When you browse on this site, cookies collect data to enhance your experience and personalize the content and advertising you see.
Visit our Privacy Policy to learn more. By continuing to use the site, you agree to this use of cookies and data.
  • In Austria
  • List of Countries
  • For 7 days
  • Water Temperature
  • Satellite Maps
  • Weather Map
  • News
  • Weather Widgets
  • user-avatar
    Login

    Hourly Weather Rohivka

    Today, 24 April, Wednesday

    Time Temperature Precipitation Wind Pressure Humidity
    00:00 +14°C° 0 mm 1 mps 752 mmHg 50%
    01:00 +13°C° 0 mm 1 mps 753 mmHg 52%
    02:00 +12°C° 0 mm 1 mps 752 mmHg 50%
    03:00 +12°C° 0 mm 1 mps 752 mmHg 52%
    04:00 +12°C° 0 mm 1 mps 753 mmHg 54%
    05:00 +10°C° 0 mm 2 mps 753 mmHg 56%
    06:00 +13°C° 0 mm 2 mps 753 mmHg 52%
    07:00 +15°C° 0 mm 2 mps 753 mmHg 48%
    08:00 +17°C° 0 mm 2 mps 753 mmHg 43%
    09:00 +18°C° 0 mm 2 mps 753 mmHg 39%
    10:00 +20°C° 0 mm 2 mps 753 mmHg 35%
    11:00 +21°C° 0 mm 3 mps 753 mmHg 31%
    12:00 +21°C° 0 mm 3 mps 753 mmHg 31%
    13:00 +22°C° 0 mm 3 mps 753 mmHg 31%
    14:00 +22°C° 0 mm 3 mps 752 mmHg 32%
    15:00 +21°C° 0 mm 3 mps 752 mmHg 35%
    16:00 +21°C° 0 mm 2 mps 752 mmHg 39%
    17:00 +20°C° 0 mm 2 mps 752 mmHg 42%
    18:00 +19°C° 0 mm 2 mps 752 mmHg 45%
    19:00 +18°C° 0 mm 2 mps 752 mmHg 47%
    20:00 +18°C° 0 mm 1 mps 752 mmHg 50%
    21:00 +16°C° 0 mm 1 mps 752 mmHg 53%
    22:00 +16°C° 0 mm 1 mps 752 mmHg 56%
    23:00 +15°C° 0 mm 1 mps 752 mmHg 58%

    Tomorrow, 25 April, Thursday

    Time Temperature Precipitation Wind Pressure Humidity
    00:00 +14°C° 0 mm 1 mps 752 mmHg 60%
    01:00 +14°C° 0 mm 1 mps 752 mmHg 61%
    02:00 +13°C° 0 mm 1 mps 752 mmHg 63%
    03:00 +13°C° 0 mm 1 mps 752 mmHg 64%
    04:00 +13°C° 0 mm 1 mps 752 mmHg 65%
    05:00 +13°C° 0 mm 1 mps 752 mmHg 66%
    06:00 +14°C° 0 mm 1 mps 753 mmHg 61%
    07:00 +16°C° 0 mm 1 mps 753 mmHg 56%
    08:00 +19°C° 0 mm 1 mps 753 mmHg 50%
    09:00 +20°C° 0 mm 1 mps 753 mmHg 46%
    10:00 +21°C° 0 mm 1 mps 753 mmHg 43%
    11:00 +23°C° 0 mm 1 mps 753 mmHg 39%
    12:00 +23°C° 0 mm 1 mps 752 mmHg 37%
    13:00 +24°C° 0 mm 1 mps 752 mmHg 36%
    14:00 +22°C° 0 mm 0 mps 752 mmHg 34%
    15:00 +22°C° 0 mm 0 mps 751 mmHg 36%
    16:00 +21°C° 0 mm 0 mps 751 mmHg 39%
    17:00 +23°C° 0 mm 1 mps 751 mmHg 41%
    18:00 +22°C° 0 mm 1 mps 751 mmHg 43%
    19:00 +21°C° 0 mm 1 mps 751 mmHg 46%
    20:00 +19°C° 0 mm 2 mps 751 mmHg 48%
    21:00 +19°C° 0 mm 2 mps 750 mmHg 50%
    22:00 +18°C° 0 mm 2 mps 750 mmHg 51%
    23:00 +18°C° 0 mm 2 mps 750 mmHg 53%

    Day after tomorrow, 26 April, Friday

    Time Temperature Precipitation Wind Pressure Humidity
    00:00 +17°C° 0 mm 2 mps 750 mmHg 54%
    01:00 +17°C° 0 mm 2 mps 750 mmHg 55%
    02:00 +17°C° 0 mm 2 mps 750 mmHg 56%
    03:00 +18°C° 0 mm 1 mps 750 mmHg 57%
    04:00 +18°C° 0 mm 1 mps 750 mmHg 58%
    05:00 +16°C° 0 mm 1 mps 749 mmHg 60%
    06:00 +18°C° 0 mm 1 mps 749 mmHg 59%
    07:00 +19°C° 0 mm 1 mps 749 mmHg 58%
    08:00 +19°C° 0 mm 1 mps 749 mmHg 58%
    09:00 +21°C° 0 mm 1 mps 749 mmHg 51%
    10:00 +20°C° 0 mm 0 mps 749 mmHg 44%
    11:00 +22°C° 0 mm 0 mps 749 mmHg 37%
    12:00 +21°C° 0 mm 0 mps 749 mmHg 38%
    13:00 +23°C° 0 mm 1 mps 749 mmHg 40%
    14:00 +22°C° 0 mm 1 mps 748 mmHg 41%
    15:00 +22°C° 0 mm 1 mps 748 mmHg 43%
    16:00 +22°C° 0 mm 1 mps 748 mmHg 45%
    17:00 +22°C° 0 mm 1 mps 748 mmHg 47%
    18:00 +19°C° 0 mm 0 mps 748 mmHg 48%
    19:00 +18°C° 0 mm 0 mps 748 mmHg 50%
    20:00 +16°C° 0 mm 0 mps 748 mmHg 51%
    21:00 +16°C° 0 mm 0 mps 747 mmHg 53%
    22:00 +15°C° 0 mm 0 mps 747 mmHg 54%
    23:00 +15°C° 0 mm 0 mps 747 mmHg 56%

    27 April, Saturday

    Time Temperature Precipitation Wind Pressure Humidity
    00:00 +14°C° 0 mm 0 mps 747 mmHg 57%
    01:00 +15°C° 0 mm 1 mps 747 mmHg 58%
    02:00 +15°C° 0 mm 1 mps 747 mmHg 59%
    03:00 +14°C° 0 mm 1 mps 746 mmHg 61%
    04:00 +14°C° 0 mm 1 mps 746 mmHg 63%
    05:00 +14°C° 0 mm 2 mps 746 mmHg 65%
    06:00 +15°C° 0 mm 2 mps 746 mmHg 61%
    07:00 +17°C° 0 mm 2 mps 746 mmHg 57%
    08:00 +19°C° 0 mm 2 mps 746 mmHg 54%
    09:00 +20°C° 0 mm 3 mps 746 mmHg 50%
    10:00 +21°C° 0 mm 3 mps 745 mmHg 46%
    11:00 +22°C° 0 mm 4 mps 745 mmHg 42%
    12:00 +22°C° 0 mm 4 mps 745 mmHg 44%
    13:00 +22°C° 0 mm 4 mps 744 mmHg 45%
    14:00 +21°C° 0 mm 3 mps 744 mmHg 47%
    15:00 +21°C° 0 mm 3 mps 744 mmHg 48%
    16:00 +21°C° 0 mm 3 mps 743 mmHg 50%
    17:00 +20°C° 0 mm 2 mps 743 mmHg 52%
    18:00 +19°C° 0 mm 2 mps 743 mmHg 55%
    19:00 +18°C° 0 mm 2 mps 743 mmHg 58%
    20:00 +17°C° 0 mm 2 mps 743 mmHg 61%
    21:00 +16°C° 0 mm 3 mps 742 mmHg 62%
    22:00 +14°C° 0 mm 3 mps 742 mmHg 64%
    23:00 +14°C° 0 mm 3 mps 742 mmHg 65%

    28 April, Sunday

    Time Temperature Precipitation Wind Pressure Humidity
    00:00 +14°C° 0 mm 3 mps 742 mmHg 66%
    01:00 +13°C° 0 mm 3 mps 742 mmHg 67%
    02:00 +13°C° 0 mm 4 mps 742 mmHg 68%
    03:00 +13°C° 0 mm 3 mps 741 mmHg 70%
    04:00 +12°C° 0 mm 3 mps 741 mmHg 73%
    05:00 +12°C° 0 mm 3 mps 741 mmHg 75%
    06:00 +14°C° 0 mm 3 mps 741 mmHg 70%
    07:00 +15°C° 0 mm 4 mps 741 mmHg 64%
    08:00 +18°C° 0 mm 4 mps 741 mmHg 59%
    09:00 +19°C° 0 mm 5 mps 741 mmHg 55%
    10:00 +20°C° 0 mm 6 mps 741 mmHg 51%
    11:00 +21°C° 0 mm 6 mps 740 mmHg 47%
    12:00 +21°C° 0 mm 6 mps 740 mmHg 46%
    13:00 +21°C° 0 mm 6 mps 740 mmHg 46%
    14:00 +21°C° 0 mm 5 mps 739 mmHg 46%
    15:00 +21°C° 0 mm 5 mps 739 mmHg 48%
    16:00 +21°C° 0 mm 4 mps 739 mmHg 50%
    17:00 +21°C° 0 mm 3 mps 739 mmHg 52%
    18:00 +20°C° 0 mm 3 mps 739 mmHg 53%
    19:00 +18°C° 0 mm 2 mps 739 mmHg 54%
    20:00 +17°C° 0 mm 2 mps 739 mmHg 55%
    21:00 +17°C° 0.2 mm 2 mps 739 mmHg 59%
    22:00 +16°C° 0.2 mm 2 mps 739 mmHg 63%
    23:00 +16°C° 0.2 mm 2 mps 739 mmHg 68%

    29 April, Monday

    Time Temperature Precipitation Wind Pressure Humidity
    00:00 +14°C° 1.1 mm 3 mps 740 mmHg 75%
    01:00 +13°C° 1.1 mm 4 mps 740 mmHg 82%
    02:00 +13°C° 1.1 mm 5 mps 740 mmHg 90%
    03:00 +12°C° 0.7 mm 5 mps 740 mmHg 88%
    04:00 +10°C° 0.7 mm 6 mps 741 mmHg 87%
    05:00 +9°C° 0.7 mm 6 mps 741 mmHg 86%
    06:00 +8°C° 0.2 mm 7 mps 741 mmHg 83%
    07:00 +8°C° 0.2 mm 7 mps 742 mmHg 81%
    08:00 +8°C° 0.2 mm 7 mps 742 mmHg 78%
    09:00 +8°C° 0 mm 7 mps 743 mmHg 74%
    10:00 +9°C° 0 mm 7 mps 743 mmHg 70%
    11:00 +9°C° 0 mm 8 mps 743 mmHg 66%
    12:00 +9°C° 0.2 mm 7 mps 744 mmHg 63%
    13:00 +9°C° 0.2 mm 6 mps 744 mmHg 61%
    14:00 +9°C° 0.2 mm 6 mps 744 mmHg 59%
    15:00 +9°C° 0 mm 6 mps 744 mmHg 58%
    16:00 +9°C° 0 mm 6 mps 744 mmHg 57%
    17:00 +9°C° 0 mm 6 mps 745 mmHg 57%
    18:00 +9°C° 0 mm 6 mps 745 mmHg 56%
    19:00 +8°C° 0 mm 6 mps 745 mmHg 56%
    20:00 +7°C° 0 mm 6 mps 746 mmHg 56%
    21:00 +5°C° 0 mm 6 mps 746 mmHg 56%
    22:00 +5°C° 0 mm 6 mps 746 mmHg 57%
    23:00 +4°C° 0 mm 6 mps 747 mmHg 57%
    Show more